Location: Newark
(35.6799°N, 139.7636°E)
Time: 14:18:54
(UTC+00:00)

Vanguard 1 Rocket - Pass Details

Date: 19 December 2019
Orbit: 650 x 4226 km, 34.3° (Epoch: 17 January)

Event Time Altitude Azimuth Distance (km) Brightness Sun altitude
Rises 13:30:34 0° 280° (W) 7,572 12.3 -70.9°
Reaches altitude 10° 13:36:26 10° 279° (W) 6,046 11.7 -71.9°
Enters shadow 13:41:14 21° 277° (W) 4,715 11.0 -72.6°
